Powrót do katalogu

SL-8 DEB

AktywnyLEO
NORAD 21959·DEBRIS·🇷🇺 Russia

Wystrzelony Feb 12, 1991 z Plesetsk Cosmodrome

Loading…

Następne Przeloty (najbliższe 24 godziny)

TLE

ŚwieżeSource: Space-Track

Epoka: Sep 14, 2026, 10:51 UTC

1 21959U 91009CH  26257.45268786 -.00000010  00000-0  49241-4 0  9999
2 21959  73.9667  59.7151 0129814 327.0747  60.8964 12.18983391579299

Śledź SL-8 DEB w czasie rzeczywistym z AllMySat

Download on the App Store